CW5307 Weather Reports


time (UTC)temp
F
wind
direction
speed
knots
gust
knots
rain 1hr
in
rain 24hr
in
rain mn
in
humidity
%
barometer
mb
20260504214241 77 152 5.2 6.1 0.00 0.00 0.00 25 1006.5
20260504213744 77 103 3.5 10.4 0.00 0.00 0.00 25 1006.5
20260504213244 78 217 1.7 7.8 0.00 0.00 0.00 25 1006.5
20260504212745 78 152 4.3 9.6 0.00 0.00 0.00 24 1006.6
20260504212241 78 192 0.9 8.7 0.00 0.00 0.00 24 1006.6
20260504211748 78 162 0.9 8.7 0.00 0.00 0.00 24 1006.5
20260504211241 79 182 8.7 11.3 0.00 0.00 0.00 25 1006.6
20260504210741 79 169 5.2 9.6 0.00 0.00 0.00 24 1006.6
20260504210242 79 135 4.3 10.4 0.00 0.00 0.00 25 1006.6
20260504205747 79 139 3.5 10.4 0.00 0.00 0.00 24 1006.5
20260504205244 80 159 10.4 13.0 0.00 0.00 0.00 23 1006.5
20260504204741 80 126 4.3 8.7 0.00 0.00 0.00 23 1006.5
20260504204241 80 115 4.3 9.6 0.00 0.00 0.00 23 1006.6
20260504203741 80 148 7.0 8.7 0.00 0.00 0.00 25 1006.6
20260504203241 80 220 5.2 11.3 0.00 0.00 0.00 23 1006.6
20260504202741 80 150 1.7 8.7 0.00 0.00 0.00 23 1006.9
20260504202251 80 135 1.7 7.8 0.00 0.00 0.00 23 1006.8
20260504201741 80 171 6.1 7.8 0.00 0.00 0.00 24 1006.8
20260504201241 80 192 4.3 7.0 0.00 0.00 0.00 24 1007.0
20260504200745 80 206 1.7 8.7 0.00 0.00 0.00 23 1007.0
20260504200242 80 292 2.6 7.0 0.00 0.00 0.00 25 1007.0
20260504195751 80 153 1.7 9.6 0.00 0.00 0.00 24 1007.1
20260504195246 80 132 3.5 13.0 0.00 0.00 0.00 22 1007.1
20260504194742 80 153 4.3 7.8 0.00 0.00 0.00 27 1007.1
20260504194244 80 194 1.7 7.0 0.00 0.00 0.00 23 1007.5
20260504193744 80 146 0.0 8.7 0.00 0.00 0.00 25 1007.5
20260504193247 80 203 4.3 7.0 0.00 0.00 0.00 25 1007.5
20260504192741 79 258 0.0 6.1 0.00 0.00 0.00 25 1007.6
20260504192241 79 196 1.7 4.3 0.00 0.00 0.00 28 1007.6
20260504191747 79 200 3.5 7.0 0.00 0.00 0.00 25 1007.6
20260504191247 79 156 4.3 12.2 0.00 0.00 0.00 25 1007.9
20260504190741 79 171 4.3 8.7 0.00 0.00 0.00 25 1007.9
20260504190241 79 173 6.1 8.7 0.00 0.00 0.00 25 1007.9
20260504185741 79 214 2.6 7.8 0.00 0.00 0.00 25 1008.1
20260504185241 78 263 2.6 8.7 0.00 0.00 0.00 26 1008.1
20260504184747 79 165 5.2 9.6 0.00 0.00 0.00 24 1008.1
20260504184244 79 224 1.7 11.3 0.00 0.00 0.00 23 1008.0
20260504183747 79 164 3.5 16.5 0.00 0.00 0.00 24 1008.0
20260504183244 79 87 7.0 13.0 0.00 0.00 0.00 25 1008.0
20260504182741 79 207 3.5 10.4 0.00 0.00 0.00 25 1008.5
20260504182241 80 96 1.7 7.8 0.00 0.00 0.00 26 1008.5
20260504181741 79 241 3.5 7.0 0.00 0.00 0.00 24 1008.5
20260504181241 79 167 1.7 7.8 0.00 0.00 0.00 22 1008.5
20260504180745 79 173 3.5 9.6 0.00 0.00 0.00 22 1008.5
20260504180241 79 128 3.5 9.6 0.00 0.00 0.00 23 1008.5
20260504175742 79 154 7.8 8.7 0.00 0.00 0.00 23 1008.6
20260504175244 79 156 5.2 7.8 0.00 0.00 0.00 22 1008.6
20260504174745 79 211 0.9 6.1 0.00 0.00 0.00 24 1008.6
20260504174242 78 297 1.7 7.8 0.00 0.00 0.00 24 1008.8
20260504173744 78 267 1.7 10.4 0.00 0.00 0.00 23 1008.8
20260504173241 78 213 3.5 9.6 0.00 0.00 0.00 24 1008.8
20260504172744 78 158 4.3 7.0 0.00 0.00 0.00 22 1009.0
20260504172242 78 170 5.2 10.4 0.00 0.00 0.00 23 1009.0
20260504171741 78 300 0.9 6.1 0.00 0.00 0.00 25 1009.0
20260504171244 78 313 1.7 7.0 0.00 0.00 0.00 23 1009.3
20260504170741 78 271 4.3 7.0 0.00 0.00 0.00 24 1009.3
20260504170247 78 187 0.9 8.7 0.00 0.00 0.00 25 1009.3
20260504160248 75 233 2.6 7.8 0.00 0.00 0.00 27 1010.0
20260504150745 70 185 2.6 8.7 0.00 0.00 0.00 27 1010.5
20260504150244 70 214 2.6 9.6 0.00 0.00 0.00 28 1010.5
20260504141241 62 159 4.3 6.1 0.00 0.00 0.00 41 1010.6
20260504140747 61 169 1.7 6.1 0.00 0.00 0.00 45 1010.5
20260504140241 60 163 0.9 5.2 0.00 0.00 0.00 46 1010.5
20260504130741 54 259 1.7 5.2 0.00 0.00 0.00 56 1010.9
20260504130241 54 179 5.2 5.2 0.00 0.00 0.00 56 1010.9
20260504120241 49 213 3.5 4.3 0.00 0.00 0.00 67 1011.4
20260504110246 46 257 0.0 1.7 0.00 0.00 0.00 73 1011.5
20260504100244 46 257 0.0 0.0 0.00 0.00 0.00 76 1011.5
20260504081744 45 257 0.0 0.0 0.00 0.00 0.00 76 1012.0
20260504081247 45 257 0.0 0.0 0.00 0.00 0.00 76 1012.0
20260504080741 45 257 0.0 0.0 0.00 0.00 0.00 76 1012.0
20260504080244 45 257 0.0 0.0 0.00 0.00 0.00 76 1012.0
20260504070241 44 257 0.0 1.7 0.00 0.00 0.00 76 1012.2
20260504060241 42 257 0.0 0.9 0.00 0.00 0.00 75 1012.3
20260504050742 43 257 0.0 0.9 0.00 0.00 0.00 72 1012.3
20260504050241 43 257 0.0 0.0 0.00 0.00 0.00 72 1012.3
20260504045741 43 257 0.0 0.0 0.00 0.00 0.00 72 1012.3
20260504045242 43 257 0.0 0.9 0.00 0.00 0.00 71 1012.3
20260504044748 43 257 0.9 0.9 0.00 0.00 0.00 71 1012.3
20260504044244 43 257 0.0 0.0 0.00 0.00 0.00 71 1012.3
20260504043744 43 257 0.0 0.0 0.00 0.00 0.00 71 1012.3
20260504043244 43 257 0.0 0.9 0.00 0.00 0.00 70 1012.3
20260504042747 43 257 0.9 0.9 0.00 0.00 0.00 70 1012.4
20260504042241 43 257 0.0 0.0 0.00 0.00 0.00 70 1012.4
20260504041745 43 257 0.0 0.9 0.00 0.00 0.00 69 1012.4
20260504041241 43 257 0.0 1.7 0.00 0.00 0.00 69 1012.3
20260504040748 43 257 0.0 0.0 0.00 0.00 0.00 69 1012.3
20260504040242 43 257 0.0 0.0 0.00 0.00 0.00 68 1012.3
20260504035741 44 257 0.0 0.0 0.00 0.00 0.00 68 1012.2
20260504035242 44 257 0.0 0.9 0.00 0.00 0.00 68 1012.2
20260504034741 44 257 0.0 0.0 0.00 0.00 0.00 67 1012.2
20260504034241 44 257 0.0 0.0 0.00 0.00 0.00 67 1012.0
20260504033742 44 257 0.0 0.0 0.00 0.00 0.00 67 1012.1
20260504033244 45 257 0.0 0.9 0.00 0.00 0.00 66 1012.1
20260504032748 45 257 0.0 0.0 0.00 0.00 0.00 66 1011.9
20260504032241 45 257 0.0 0.9 0.00 0.00 0.00 66 1011.9
20260504031741 45 257 0.0 0.9 0.00 0.00 0.00 65 1011.9
20260504031244 46 257 0.9 0.9 0.00 0.00 0.00 65 1011.8
20260504030747 46 257 0.0 0.0 0.00 0.00 0.00 65 1011.8
20260504030244 46 257 0.0 0.0 0.00 0.00 0.00 63 1011.8
20260504025744 46 257 0.0 0.9 0.00 0.00 0.00 63 1011.8
20260504025241 47 257 0.0 0.9 0.00 0.00 0.00 62 1011.8
20260504024748 47 257 0.0 0.0 0.00 0.00 0.00 62 1011.8
20260504024247 47 257 0.0 0.0 0.00 0.00 0.00 62 1011.8
20260504023750 47 257 0.0 0.0 0.00 0.00 0.00 61 1011.8
20260504023241 47 257 0.0 0.0 0.00 0.00 0.00 61 1011.8
20260504022741 48 257 0.0 0.0 0.00 0.00 0.00 60 1011.8
20260504022248 48 257 0.0 0.9 0.00 0.00 0.00 59 1011.8
20260504021745 48 257 0.0 0.9 0.00 0.00 0.00 58 1011.8
20260504021241 49 257 0.9 1.7 0.00 0.00 0.00 57 1011.8
20260504020741 49 257 0.0 0.0 0.00 0.00 0.00 57 1011.8
20260504020247 49 257 0.0 0.0 0.00 0.00 0.00 56 1011.8
20260504015745 50 257 0.0 0.0 0.00 0.00 0.00 56 1011.7
20260504015244 50 257 0.0 0.0 0.00 0.00 0.00 54 1011.7
20260504014747 50 257 0.0 0.9 0.00 0.00 0.00 54 1011.7
20260504014242 51 257 0.9 1.7 0.00 0.00 0.00 53 1011.7
20260504013747 51 257 0.0 0.0 0.00 0.00 0.00 51 1011.7
20260504013241 51 257 0.0 0.0 0.00 0.00 0.00 51 1011.7
20260504012744 51 257 0.0 0.0 0.00 0.00 0.00 50 1011.5
20260504012244 52 257 0.0 0.0 0.00 0.00 0.00 50 1011.5
20260504011744 52 257 0.0 0.0 0.00 0.00 0.00 49 1011.5
20260504011241 53 257 0.0 0.0 0.00 0.00 0.00 49 1011.4
20260504010745 53 257 0.0 0.9 0.00 0.00 0.00 47 1011.4
20260504010242 54 257 0.0 0.9 0.00 0.00 0.00 45 1011.4
20260504005747 54 257 0.0 0.0 0.00 0.00 0.00 45 1011.3
20260504005241 55 257 0.0 0.0 0.00 0.00 0.00 44 1011.3
20260504004742 55 257 0.0 0.0 0.00 0.00 0.00 42 1011.3
20260504004244 55 257 0.0 0.0 0.00 0.00 0.00 42 1011.2
20260504003741 56 257 0.0 0.0 0.00 0.00 0.00 42 1011.2
20260504003241 57 257 0.0 0.0 0.00 0.00 0.00 40 1011.2
20260504002747 57 257 0.0 0.9 0.00 0.00 0.00 38 1011.0
20260504002244 58 257 0.0 0.0 0.00 0.00 0.00 34 1011.0
20260504001741 58 257 0.0 0.0 0.00 0.00 0.00 35 1011.0
20260504001241 58 257 0.0 0.0 0.00 0.00 0.00 37 1010.9
20260504000745 59 257 0.0 0.0 0.00 0.00 0.00 34 1010.9
20260504000242 59 257 0.0 0.9 0.00 0.00 0.00 33 1010.9
20260503235741 60 257 0.0 0.9 0.00 0.00 0.00 28 1010.8
20260503235241 60 257 0.0 0.9 0.00 0.00 0.00 27 1010.8
20260503234741 60 257 0.0 1.7 0.00 0.00 0.00 27 1010.8
20260503234250 60 257 0.0 2.6 0.00 0.00 0.00 28 1010.7
20260503233741 60 257 0.9 2.6 0.00 0.00 0.00 27 1010.7
20260503233241 60 257 2.6 5.2 0.00 0.00 0.00 26 1010.7
20260503232741 61 257 0.9 5.2 0.00 0.00 0.00 26 1010.4
20260503232244 61 260 1.7 8.7 0.00 0.00 0.00 25 1010.4
20260503231741 61 269 3.5 7.8 0.00 0.00 0.00 25 1010.4
20260503231241 61 243 2.6 6.1 0.00 0.00 0.00 25 1010.3
20260503230744 61 267 5.2 7.8 0.00 0.00 0.00 25 1010.3
20260503230241 61 225 4.3 9.6 0.00 0.00 0.00 25 1010.3
20260503225742 62 263 1.7 7.0 0.00 0.00 0.00 25 1010.6
20260503225244 62 232 3.5 7.8 0.00 0.00 0.00 24 1010.6
20260503224741 62 257 0.9 6.1 0.00 0.00 0.00 25 1010.6
20260503224241 62 264 1.7 7.8 0.00 0.00 0.00 25 1010.6
20260503223744 62 296 6.1 6.1 0.00 0.00 0.00 25 1010.6
20260503223242 62 342 0.9 9.6 0.00 0.00 0.00 26 1010.6
20260503222747 62 306 3.5 6.1 0.00 0.00 0.00 26 1010.5
20260503222244 62 239 0.9 11.3 0.00 0.00 0.00 24 1010.5
20260503221741 62 282 3.5 8.7 0.00 0.00 0.00 25 1010.5
20260503221244 62 325 1.7 7.8 0.00 0.00 0.00 26 1010.7
20260503220744 62 263 0.9 7.8 0.00 0.00 0.00 25 1010.7
20260503220241 62 13 3.5 9.6 0.00 0.00 0.00 25 1010.7
20260503215741 62 281 5.2 6.1 0.00 0.00 0.00 26 1010.7
20260503215250 62 319 2.6 9.6 0.00 0.00 0.00 24 1010.6
20260503214745 62 42 2.6 10.4 0.00 0.00 0.00 25 1010.6